OE1TRI Weather Reports


time (UTC)temp
F
wind
direction
speed
knots
gust
knots
rain 1hr
in
rain 24hr
in
rain mn
in
humidity
%
barometer
mb
20260905223005 69 328 2.6 5.2 0.00 0.02 0.00 65 1029.1
20260905220004 69 322 1.7 4.3 0.00 0.02 0.00 64 1028.8
20260905215004 69 319 0.9 5.2 0.00 0.02 0.02 64 1028.8
20260905213005 70 302 2.6 5.2 0.00 0.02 0.02 63 1028.4
20260905212005 70 120 2.6 6.1 0.00 0.02 0.02 62 1028.4
20260905211005 70 226 4.3 10.4 0.00 0.02 0.02 62 1028.1
20260905210005 70 221 6.1 10.4 0.00 0.02 0.02 61 1028.1
20260905205005 71 354 1.7 4.3 0.00 0.02 0.02 61 1028.1
20260905204004 71 355 1.7 6.1 0.00 0.02 0.02 60 1028.1
20260905202005 71 1 2.6 7.0 0.00 0.02 0.02 60 1027.8
20260905200005 71 10 1.7 4.3 0.00 0.02 0.02 61 1027.8
20260905195005 71 275 2.6 4.3 0.00 0.02 0.02 61 1027.8
20260905194005 71 73 1.7 7.8 0.00 0.02 0.02 61 1027.8
20260905193005 71 237 5.2 7.8 0.00 0.02 0.02 61 1027.8
20260905192004 71 195 2.6 5.2 0.00 0.02 0.02 61 1027.4
20260905184005 72 242 1.7 5.2 0.00 0.02 0.02 59 1027.1
20260905183005 72 1 1.7 1.7 0.00 0.02 0.02 59 1027.1
20260905180005 73 82 2.6 6.1 0.00 0.02 0.02 57 1026.8
20260905175005 73 214 1.7 6.1 0.00 0.02 0.02 57 1026.4
20260905174004 73 172 2.6 4.3 0.00 0.02 0.02 56 1026.4
20260905173004 73 14 0.9 1.7 0.00 0.02 0.02 55 1026.1
20260905170004 74 331 2.6 7.8 0.00 0.02 0.02 53 1026.1
20260905161005 77 313 1.7 7.0 0.00 0.02 0.02 50 1025.4
20260905155004 77 53 1.7 8.7 0.00 0.02 0.02 51 1025.4
20260905154004 77 131 1.7 11.3 0.00 0.02 0.02 50 1025.4
20260905153004 77 13 4.3 7.8 0.00 0.02 0.02 51 1025.4
20260905150004 78 226 2.6 5.2 0.00 0.02 0.02 50 1025.4
20260905144004 77 336 4.3 6.1 0.00 0.02 0.02 51 1025.4
20260905143005 78 329 2.6 7.0 0.00 0.02 0.02 51 1025.7
20260905142005 78 12 0.9 7.0 0.00 0.02 0.02 50 1025.7
20260905141005 77 276 4.3 7.0 0.00 0.02 0.02 52 1025.4
20260905140005 77 79 4.3 12.2 0.00 0.02 0.02 52 1025.4
20260905135005 76 353 2.6 8.7 0.00 0.02 0.02 52 1025.7
20260905130004 76 13 2.6 5.2 0.00 0.02 0.02 54 1025.7
20260905125004 75 298 1.7 7.0 0.00 0.02 0.02 54 1025.7
20260905124004 76 112 5.2 7.0 0.00 0.02 0.02 54 1025.7
20260905123004 75 247 4.3 7.8 0.00 0.02 0.02 56 1025.7
20260905122004 75 178 4.3 8.7 0.00 0.02 0.02 56 1025.7
20260905120005 74 205 5.2 10.4 0.00 0.02 0.02 56 1025.8
20260905115005 74 343 4.3 10.4 0.00 0.02 0.02 57 1026.1
20260905112005 74 217 4.3 7.8 0.00 0.02 0.02 58 1026.1
20260905111005 74 260 5.2 7.8 0.00 0.02 0.02 59 1026.1
20260905105005 72 279 5.2 10.4 0.00 0.02 0.02 61 1026.1
20260905103005 70 232 7.8 17.4 0.00 0.02 0.02 65 1026.4
20260905102005 70 230 5.2 8.7 0.01 0.02 0.02 65 1026.1
20260905101005 69 19 2.6 7.8 0.01 0.02 0.02 67 1026.4
20260905100005 69 321 5.2 7.8 0.01 0.02 0.02 68 1026.1
20260905093005 67 115 2.6 5.2 0.01 0.02 0.02 71 1026.1
20260905092004 66 3 1.7 4.3 0.00 0.01 0.01 73 1026.4
20260905091005 65 318 2.6 4.3 0.00 0.01 0.01 75 1026.4
20260905085005 64 303 1.7 2.6 0.00 0.01 0.01 77 1026.4
20260905084004 65 243 0.9 1.7 0.00 0.01 0.01 75 1026.4
20260905082005 66 102 0.9 4.3 0.00 0.01 0.01 70 1026.8
20260905081004 65 286 2.6 4.3 0.00 0.01 0.01 69 1026.8
20260905080005 65 23 2.6 5.2 0.00 0.01 0.01 70 1026.8
20260905075004 64 338 2.6 7.0 0.00 0.01 0.01 71 1027.1
20260905074004 64 194 5.2 6.1 0.00 0.01 0.01 70 1026.8
20260905073005 65 193 1.7 1.7 0.00 0.01 0.01 70 1027.1
20260905070005 65 351 1.7 5.2 0.00 0.01 0.01 70 1026.4
20260905065005 65 4 1.7 2.6 0.00 0.01 0.01 67 1026.4
20260905064005 65 337 1.7 2.6 0.00 0.01 0.01 65 1026.8
20260905063005 65 118 0.9 7.0 0.00 0.01 0.01 64 1026.1
20260905061004 67 329 6.1 13.0 0.00 0.01 0.01 61 1025.4
20260905060005 68 333 7.8 10.4 0.00 0.01 0.01 58 1025.4
20260905054004 68 333 7.8 13.0 0.00 0.01 0.01 57 1025.1
20260905052004 68 354 7.0 10.4 0.00 0.01 0.01 59 1024.0
20260905051004 68 355 7.8 10.4 0.00 0.01 0.01 60 1023.4
20260905050005 68 5 4.3 13.9 0.00 0.01 0.01 61 1023.4
20260905043005 67 351 5.2 7.8 0.00 0.01 0.01 65 1023.4
20260905042004 67 20 3.5 6.1 0.00 0.01 0.01 67 1023.0
20260905041005 66 9 3.5 7.8 0.00 0.01 0.01 71 1022.7
20260905040004 66 330 5.2 7.8 0.00 0.01 0.01 73 1022.7
20260905035004 67 345 2.6 7.0 0.00 0.01 0.01 71 1022.7
20260905034004 70 331 7.0 13.9 0.01 0.01 0.01 62 1022.7
20260905033004 70 5 5.2 7.8 0.01 0.01 0.01 65 1022.0
20260905032004 71 334 2.6 8.7 0.01 0.01 0.01 69 1022.0
20260905031005 72 349 6.1 8.7 0.01 0.01 0.01 70 1021.3
20260905030004 74 355 6.1 8.7 0.01 0.01 0.01 70 1021.3
20260905025004 76 169 2.6 4.3 0.01 0.01 0.01 62 1020.0
20260905023004 76 5 1.7 4.3 0.00 0.00 0.00 57 1019.6
20260905022004 77 63 0.9 6.1 0.00 0.00 0.00 55 1019.6
20260905021004 78 27 2.6 6.1 0.00 0.00 0.00 51 1020.3
20260905020005 78 199 0.9 1.7 0.00 0.00 0.00 49 1019.6
20260905014004 79 289 2.6 5.2 0.00 0.00 0.00 48 1019.6
20260905013004 79 213 2.6 5.2 0.00 0.00 0.00 48 1019.3
20260905012004 79 258 1.7 2.6 0.00 0.00 0.00 48 1019.3
20260905011004 79 154 1.7 5.2 0.00 0.00 0.00 48 1019.3
20260905010005 79 202 0.9 4.3 0.00 0.00 0.00 48 1019.3
20260905005005 79 248 1.7 5.2 0.00 0.00 0.00 48 1019.3
20260905003004 78 160 1.7 2.6 0.00 0.00 0.00 49 1019.3
20260905001004 77 146 0.9 0.9 0.00 0.00 0.00 51 1019.0
20260905000004 77 60 0.0 1.7 0.00 0.00 0.00 51 1019.3
20260904234004 76 93 0.9 0.9 0.00 0.00 0.00 52 1019.3
20260904232004 75 80 0.0 0.0 0.00 0.00 0.00 54 1019.3
20260904231005 76 89 0.0 0.9 0.00 0.00 0.00 52 1018.6
20260904230005 77 96 0.0 0.9 0.00 0.00 0.00 51 1019.0
20260904225005 77 93 0.9 0.9 0.00 0.00 0.00 51 1018.6
20260904224004 77 105 0.0 1.7 0.00 0.00 0.00 51 1018.6